Location: ??????
(41.3794°N, 22.5014°E)
Time: 08:24:26
(UTC+00:00)

Cosmos 773 Rocket - Pass Details

Date: 30 November 2020
Orbit: 746 x 776 km, 74.1° (Epoch: 17 January)

Event Time Altitude Azimuth Distance (km) Brightness Sun altitude
Rises 15:37:49 0° 188° (S) 3,217 7.7 -7.0°
Reaches altitude 10° 15:40:11 10° 184° (S) 2,300 6.9 -7.4°
Maximum altitude 15:45:20 61° 105° (ESE) 875 4.1 -8.3°
Drops below altitude 10° 15:50:32 10° 26° (NNE) 2,330 6.1 -9.2°
Enters shadow 15:52:38 - 24° (NNE) 3,138 6.8 -9.5°
